Temperature
16 16 16 15 16 16 16 15 16 16 16 15 15 15 15 15 15 15 15 15 15 15 15 15 15 15 15 15 15 15 15 15 15 15 15 15 15 15 15 15 15 15 15
16 16 15 15 15 15 15 15 15 15 15 15 15 15 15 15 15 15 15 15 15 15 15 15 15 15 15 15 15 15 15 15 15 15 15 15 15 15 15 15 15 15 15
16 16 15 15 15 15 15 15 15 15 15 15 15 15 15 15 15 15 15 15 15 15 15 15 15 15 15 15 15 15 14 14 14 15 15 15 15 15 15 15 15 15 15
16 15 15 15 15 15 15 15 15 15 15 15 15 15 15 15 15 14 14 14 14 14 14 14 14 14 14 14 14 14 14 14 14 14 14 14 14 14 14 14 15 15 15
15 15 15 15 15 15 15 15 14 14 15 15 15 15 15 14 14 14 14 14 14 14 14 14 14 14 14 14 14 14 14 14 14 14 14 14 14 14 14 14 14 14 14
15 15 15 15 15 15 14 14 14 14 14 14 14 14 14 14 14 14 14 14 14 14 14 14 14 13 14 14 14 14 14 14 13 13 13 13 13 13 14 14 14 14 14
15 15 15 15 15 14 14 14 14 14 14 14 14 14 14 14 14 14 14 14 14 13 13 13 13 13 13 13 13 13 14 13 13 13 13 13 13 13 13 13 13 13 13
15 14 14 14 14 14 14 14 14 14 14 14 14 14 14 14 14 14 14 13 13 13 13 13 13 13 13 13 13 13 13 13 13 13 13 13 13 13 13 13 13 13 13
15 14 14 14 14 14 14 14 13 13 14 14 14 14 14 14 13 14 14 13 13 13 13 13 13 12 12 13 13 13 13 13 13 13 13 13 13 13 13 13 13 13 13
14 14 14 14 14 14 14 13 13 13 13 13 13 13 13 13 13 13 13 13 13 13 13 13 13 12 12 12 12 12 12 13 13 13 13 13 13 12 12 12 12 13 12
14 14 14 14 14 13 13 13 13 13 13 13 13 13 13 13 13 13 13 13 13 13 13 12 12 12 12 12 12 12 12 12 12 12 13 13 12 12 12 12 12 12 12
14 14 14 14 14 13 13 13 13 13 13 13 13 13 13 13 13 13 13 13 12 12 12 12 12 12 12 12 12 12 12 12 12 12 12 12 12 12 12 12 12 12 12
14 14 14 13 13 13 13 13 13 13 13 13 13 13 13 13 13 13 13 12 12 12 12 12 12 12 12 12 11 11 12 12 12 12 12 12 12 12 12 12 12 12 12
14 14 14 13 13 13 13 13 13 13 13 12 12 12 12 12 12 12 12 12 12 12 12 12 12 12 11 11 11 11 11 11 11 11 12 12 12 12 12 12 11 11 11
13 13 13 13 13 13 13 13 12 12 12 12 12 12 12 12 12 12 12 12 12 11 11 12 11 11 11 11 11 11 11 11 11 11 11 11 11 11 11 11 11 11 11
13 13 13 13 13 13 12 12 12 12 12 12 12 12 12 12 12 12 12 12 12 11 11 11 11 11 11 11 11 11 11 11 11 11 11 11 11 11 11 11 11 11 11
13 13 13 13 12 12 12 12 12 12 12 12 12 12 12 11 11 11 11 11 11 11 11 11 11 11 11 10 10 10 10 10 10 11 11 11 11 11 11 11 10 11 11
13 12 12 12 12 12 12 12 11 11 11 11 11 11 11 11 11 11 11 11 11 11 10 10 10 10 10 10 10 10 10 10 10 10 10 10 11 10 10 10 10 10 10
12 12 12 12 12 12 11 11 11 11 11 11 11 11 11 11 11 11 11 10 10 10 10 10 10 10 10 10 10 10 10 10 10 10 10 10 10 10 10 10 10 10 10
12 12 11 11 11 11 11 11 11 11 11 11 11 11 11 10 11 10 10 10 10 10 10 9 9 9 9 9 9 9 9 9 9 9 9 9 10 10 10 10 10 10 10
11 11 11 11 11 11 11 11 11 10 10 10 10 10 10 10 10 10 10 10 9 9 9 9 9 9 9 9 9 9 9 9 9 9 9 9 9 9 9 9 9 9 9
11 11 11 11 10 10 10 10 10 10 10 10 10 10 10 10 10 10 10 10 9 9 9 9 9 9 9 9 9 9 9 8 8 9 9 9 9 9 9 9 9 9 9
11 10 10 10 10 10 10 10 10 10 10 9 9 9 9 9 10 10 10 9 9 9 9 9 9 9 9 9 8 8 8 8 8 8 8 8 8 8 9 9 9 9 9
10 10 10 10 10 10 9 9 9 9 9 9 9 9 9 9 9 9 9 9 9 9 9 9 9 9 9 8 8 8 8 8 8 8 8 8 8 8 8 8 8 8 8
9 9 9 9 9 9 9 9 9 9 9 9 9 8 8 8 9 9 9 9 9 9 9 9 9 8 8 8 8 8 8 8 7 7 7 7 7 7 7 7 7 7 7
9 9 9 9 8 8 8 8 8 8 8 8 8 8 8 8 8 8 8 8 8 8 8 8 8 8 8 8 8 8 8 7 7 7 7 7 7 7 7 7 7 7 7
Wind_Speed
2 2 2 2 3 3 3 3 4 5 5 5 6 6 6 7 8 8 8 10 11 11 10 10 10 10 9 8 8 7 7 7 8 8 8 8 8 8 8 7 7 7 7
2 2 2 2 2 4 4 4 4 4 3 3 4 5 6 6 6 7 9 9 10 10 10 10 10 9 9 8 8 8 7 7 7 7 7 7 8 8 8 7 6 6 7
5 3 3 3 3 4 4 4 4 4 3 3 4 3 4 5 5 6 7 8 8 9 9 9 9 9 8 8 8 8 7 7 6 6 6 7 7 7 7 7 6 6 6
6 4 3 2 3 4 3 2 2 2 3 3 2 2 3 3 4 4 6 7 7 7 7 8 8 8 8 7 7 7 8 7 7 6 6 6 7 6 6 6 6 6 6
6 5 3 2 4 3 2 2 3 3 3 3 2 1 1 2 2 3 4 6 7 7 6 6 7 7 7 7 6 6 6 7 7 6 6 6 6 6 6 6 6 6 6
5 4 2 3 3 2 3 3 3 3 1 1 2 2 1 1 2 2 3 4 5 5 6 5 6 5 5 5 6 5 5 5 6 6 6 6 6 5 6 6 6 6 6
4 3 2 2 2 2 2 2 2 2 2 2 2 2 1 1 2 1 2 2 3 4 4 4 4 5 5 4 4 4 4 4 4 5 5 5 5 5 5 5 5 6 6
3 2 2 1 1 1 1 2 2 1 1 1 1 1 1 1 2 0 1 1 2 2 2 3 4 4 5 5 4 4 5 4 4 4 4 4 4 4 5 5 5 5 6
2 2 2 1 1 1 0 1 1 0 1 2 1 1 1 1 1 1 0 1 2 1 1 3 3 4 5 5 5 5 5 4 4 4 4 4 3 4 4 4 5 5 5
2 2 2 2 1 1 0 0 1 0 0 1 2 2 1 0 1 1 1 1 1 1 1 1 3 4 5 6 6 6 5 5 4 4 3 3 3 3 3 4 4 5 5
1 2 1 1 1 0 0 0 1 1 1 1 1 1 1 1 1 1 1 1 1 1 0 1 2 3 5 5 5 6 6 5 4 4 3 3 3 3 3 3 4 4 4
1 1 1 0 0 0 1 1 1 1 1 1 1 1 0 1 1 1 1 1 1 1 1 1 1 2 4 3 4 6 5 5 4 4 4 3 3 3 3 3 4 4 4
1 2 1 2 1 1 1 1 1 1 2 2 2 1 1 1 1 1 1 1 1 1 0 0 0 2 3 4 5 6 5 4 4 4 4 4 4 4 3 3 3 3 4
2 2 2 2 2 2 1 1 1 2 2 2 2 2 1 1 0 0 1 0 0 1 0 1 1 2 3 5 6 6 4 4 4 3 3 3 3 3 3 3 3 3 3
1 1 1 2 2 2 2 2 1 2 2 2 2 2 1 1 0 0 0 1 1 1 2 1 0 1 3 5 6 5 4 3 3 3 3 3 3 3 3 2 2 2 3
1 1 2 2 2 2 1 2 2 2 3 3 3 2 2 1 1 1 0 0 1 2 1 1 0 1 2 3 5 4 5 5 4 4 3 3 3 3 3 2 2 2 2
1 2 2 1 2 2 2 2 3 3 3 3 2 2 3 2 2 1 1 0 0 1 1 1 1 0 2 2 2 2 4 5 4 4 4 4 4 3 3 3 2 2 2
2 2 2 1 2 2 2 3 3 4 4 3 3 2 3 2 2 2 2 2 1 1 2 2 1 1 1 1 2 2 3 3 4 4 5 5 5 5 4 4 3 2 2
1 2 1 2 2 2 2 2 3 3 3 3 3 3 3 3 3 2 2 2 2 2 2 1 1 1 0 0 2 1 0 0 2 4 5 5 5 6 5 4 4 3 3
1 1 2 2 2 2 2 2 3 3 3 3 3 3 3 3 3 3 3 3 3 2 2 2 1 1 1 1 1 1 1 0 0 1 3 4 5 6 6 6 5 5 4
2 2 2 2 2 2 2 2 2 3 3 3 3 3 3 3 4 3 3 3 3 3 2 2 2 1 1 1 2 2 2 1 1 1 1 2 3 4 5 6 5 6 6
1 1 2 2 2 3 3 3 2 3 4 3 4 4 4 4 4 4 3 3 4 4 4 3 3 3 3 3 3 2 2 2 1 1 1 1 3 2 4 5 6 6 6
2 2 2 2 2 3 4 4 4 4 4 4 4 4 4 4 4 3 4 4 4 6 5 4 4 4 3 4 3 3 3 3 3 2 1 2 2 2 3 4 6 7 7
2 3 3 3 3 4 5 5 5 4 4 5 4 4 4 4 4 4 4 4 4 5 5 5 5 5 4 3 4 5 4 3 1 1 2 2 2 2 2 4 6 6 7
2 3 3 3 3 4 5 6 4 3 3 5 4 4 4 3 4 4 4 5 5 4 5 6 6 5 4 4 3 2 2 3 2 2 1 2 2 1 2 2 4 6 6
3 3 3 2 3 4 5 6 5 3 3 4 3 3 3 3 2 3 3 3 4 4 3 3 4 4 3 3 5 5 5 4 3 2 2 2 2 1 1 1 2 3 5
Wind_Direction
93 77 71 69 60 50 32 27 35 32 31 35 47 57 58 59 80 93 91 86 84 78 74 69 65 62 61 62 67 69 74 77 76 78 78 75 73 75 77 77 76 75 76
93 90 68 53 54 55 43 38 38 35 23 36 39 46 57 57 67 94 106 94 88 82 76 71 65 62 64 65 66 64 70 74 74 77 79 78 76 74 74 73 72 74 76
78 73 63 53 44 51 53 45 36 39 29 34 41 46 61 60 58 78 98 102 94 85 79 74 67 64 67 67 67 66 69 76 79 81 83 83 81 77 75 72 70 72 76
79 76 66 56 51 53 52 37 28 33 28 26 24 42 58 60 53 70 85 96 93 92 88 80 75 71 69 68 70 69 66 71 79 81 83 84 81 77 76 73 74 73 74
73 73 65 52 54 53 41 30 32 34 28 14 2 74 61 74 65 62 70 87 91 93 99 93 86 78 71 66 66 68 69 68 76 83 85 85 84 80 78 77 76 76 77
64 69 72 62 52 49 37 39 37 25 20 345 342 57 88 110 92 70 63 79 89 96 100 101 104 94 80 70 64 64 69 73 74 84 88 86 83 83 80 80 79 78 79
69 70 55 55 49 58 52 44 47 24 350 346 15 4 358 81 94 107 88 87 92 100 113 107 109 113 100 81 67 57 59 83 86 90 93 90 86 85 81 82 81 79 78
52 62 71 66 48 52 68 55 50 16 328 1 19 3 359 349 336 121 98 92 90 82 85 89 94 103 107 99 82 62 58 89 97 98 103 99 95 91 87 83 79 81 80
78 58 45 64 78 68 111 120 82 93 300 305 358 84 113 230 307 331 7 81 83 65 43 60 75 97 101 97 94 78 68 75 94 107 110 108 105 100 97 92 81 78 82
75 76 49 34 54 64 64 207 141 183 156 298 322 338 307 137 158 253 317 2 76 66 47 43 58 78 86 97 98 88 80 69 81 99 114 116 110 105 101 97 92 82 83
83 74 53 30 34 10 244 242 126 201 215 219 257 290 312 316 271 177 227 300 348 335 41 77 70 79 91 95 104 101 93 83 75 83 97 111 113 113 106 101 101 93 92
173 161 155 173 160 239 250 211 187 215 230 235 252 256 214 275 278 251 222 233 236 279 328 65 91 94 101 104 110 111 102 92 86 82 84 91 99 109 106 102 97 97 103
197 202 212 227 226 215 216 216 209 228 221 224 235 241 232 243 253 263 200 253 237 262 327 306 146 138 125 115 119 124 112 101 95 90 86 89 88 87 98 104 107 102 103
211 194 210 223 219 204 202 187 242 243 237 228 235 234 241 255 308 282 182 157 280 277 294 245 235 142 131 133 143 144 129 117 109 109 105 101 97 89 87 90 107 101 104
238 209 217 229 229 213 202 191 223 244 242 233 234 235 222 217 234 307 337 159 173 217 255 246 170 122 128 137 150 150 147 144 134 129 128 127 123 114 106 98 98 104 113
303 279 252 231 215 229 230 210 218 251 242 234 221 220 231 211 212 215 232 274 153 180 214 263 239 179 131 124 157 167 163 164 164 164 164 157 148 145 142 125 115 112 132
266 277 267 266 247 233 223 226 236 243 246 249 236 208 220 206 193 207 188 169 188 146 193 284 312 187 119 128 134 153 158 164 174 186 182 177 177 172 169 159 150 142 147
242 255 278 281 268 264 240 232 241 249 240 243 248 238 229 202 198 199 183 196 194 182 183 230 282 304 164 160 145 146 152 182 176 193 188 184 189 182 175 171 174 170 168
257 263 258 271 281 270 258 248 240 245 244 242 243 240 236 207 207 202 188 198 199 206 184 190 246 253 254 200 141 148 134 152 184 193 193 194 197 190 185 187 193 194 188
277 282 280 275 281 279 268 259 256 251 251 252 253 244 237 219 211 208 204 205 197 193 189 196 224 239 232 243 155 167 218 256 196 180 192 194 198 195 194 200 207 206 200
288 292 302 302 307 292 279 296 283 270 259 254 253 244 230 214 205 201 203 199 194 194 196 199 210 228 233 217 215 194 188 199 230 190 175 183 176 184 199 208 211 208 206
286 297 291 289 292 296 311 314 300 283 270 256 255 255 238 218 215 212 212 202 196 200 202 203 211 214 226 224 216 190 182 184 231 239 160 212 164 182 195 195 201 202 206
291 278 273 275 270 280 291 293 294 283 274 265 253 255 260 244 209 205 222 233 233 233 216 203 207 223 226 220 202 192 197 193 208 210 162 228 196 190 198 206 201 198 202
280 267 269 276 275 279 285 284 293 280 271 267 254 247 250 252 230 213 206 213 218 229 227 217 217 229 234 221 198 196 195 188 193 184 141 205 212 202 202 204 202 194 195
278 274 263 262 269 278 283 280 279 279 274 272 265 253 247 249 247 232 212 215 223 232 235 225 226 228 230 219 186 166 176 170 192 228 199 183 211 212 200 202 200 199 201
278 285 290 276 271 281 298 302 282 272 275 277 274 264 249 257 259 231 215 214 229 242 239 238 238 240 228 218 200 187 189 186 180 206 215 173 194 169 253 218 167 179 195
Height
1534 1534 1533 1533 1533 1533 1533 1532 1532 1532 1532 1532 1532 1531 1531 1531 1530 1529 1529 1529 1528 1528 1528 1527 1527 1527 1527 1527 1527 1527 1528 1528 1529 1529 1529 1530 1530 1531 1531 1531 1532 1532 1532
1534 1534 1534 1534 1533 1533 1533 1533 1532 1532 1532 1532 1532 1531 1531 1531 1531 1530 1530 1529 1529 1529 1528 1528 1528 1527 1527 1527 1527 1527 1527 1527 1528 1528 1529 1529 1530 1530 1531 1531 1531 1532 1532
1535 1534 1534 1534 1534 1533 1533 1532 1532 1532 1532 1532 1532 1531 1531 1531 1531 1531 1530 1530 1529 1529 1529 1528 1528 1527 1527 1527 1527 1526 1526 1527 1527 1527 1528 1528 1529 1529 1530 1530 1531 1531 1532
1535 1534 1534 1534 1533 1533 1533 1532 1532 1532 1532 1531 1531 1531 1531 1531 1531 1531 1531 1530 1530 1529 1529 1528 1528 1527 1527 1526 1526 1526 1526 1526 1526 1526 1527 1528 1528 1529 1529 1530 1530 1531 1532
1535 1534 1534 1534 1533 1533 1533 1532 1532 1532 1531 1531 1531 1531 1531 1531 1531 1531 1531 1531 1530 1530 1529 1528 1528 1527 1527 1526 1526 1526 1525 1525 1525 1526 1526 1527 1528 1528 1529 1529 1530 1531 1531
1534 1534 1533 1533 1533 1532 1532 1532 1531 1531 1531 1531 1531 1531 1531 1531 1531 1531 1531 1531 1530 1530 1529 1528 1528 1527 1526 1526 1526 1525 1525 1525 1525 1525 1525 1526 1527 1528 1528 1529 1529 1530 1531
1534 1533 1533 1533 1532 1532 1531 1531 1531 1531 1531 1530 1530 1530 1531 1531 1531 1531 1531 1531 1530 1530 1529 1529 1528 1527 1526 1526 1525 1524 1524 1523 1524 1524 1525 1525 1526 1527 1528 1528 1529 1530 1530
1533 1533 1533 1532 1531 1531 1531 1530 1530 1530 1530 1530 1530 1530 1531 1531 1531 1530 1531 1530 1530 1529 1529 1528 1528 1527 1526 1525 1525 1524 1523 1523 1523 1523 1524 1524 1525 1526 1527 1527 1528 1529 1530
1532 1532 1532 1531 1531 1530 1530 1529 1529 1529 1529 1530 1530 1531 1530 1530 1530 1530 1530 1530 1529 1529 1528 1528 1527 1526 1525 1525 1524 1523 1523 1523 1523 1523 1523 1523 1524 1525 1526 1527 1528 1528 1529
1531 1531 1531 1530 1530 1529 1529 1528 1528 1528 1528 1528 1529 1529 1530 1529 1529 1529 1529 1528 1528 1528 1527 1527 1526 1526 1525 1524 1524 1523 1523 1522 1522 1522 1522 1522 1523 1524 1525 1526 1527 1527 1528
1530 1530 1529 1529 1528 1528 1527 1527 1527 1527 1527 1527 1527 1527 1528 1528 1528 1528 1527 1527 1527 1527 1526 1526 1525 1525 1524 1524 1523 1522 1522 1522 1521 1521 1521 1521 1522 1523 1524 1525 1525 1526 1527
1528 1528 1528 1527 1527 1527 1526 1526 1525 1525 1525 1525 1525 1526 1526 1526 1526 1526 1526 1525 1525 1525 1525 1525 1525 1524 1523 1523 1522 1522 1522 1521 1521 1520 1520 1520 1521 1522 1523 1524 1525 1526 1527
1526 1526 1526 1526 1525 1525 1525 1524 1524 1523 1523 1523 1523 1524 1524 1524 1524 1524 1524 1523 1523 1524 1523 1523 1523 1523 1522 1522 1521 1521 1521 1521 1520 1520 1520 1520 1520 1521 1522 1523 1524 1525 1526
1524 1524 1524 1524 1523 1523 1523 1522 1522 1522 1521 1521 1521 1521 1521 1522 1522 1522 1522 1522 1521 1522 1522 1522 1522 1521 1521 1521 1520 1520 1520 1520 1520 1520 1519 1519 1520 1520 1521 1522 1523 1524 1525
1522 1522 1521 1521 1521 1521 1520 1520 1520 1519 1519 1519 1519 1519 1519 1519 1519 1519 1519 1520 1520 1519 1520 1520 1520 1520 1520 1519 1519 1519 1519 1519 1518 1519 1519 1519 1519 1520 1520 1521 1522 1523 1524
1519 1519 1519 1519 1518 1518 1518 1517 1517 1517 1516 1516 1516 1516 1516 1516 1516 1516 1517 1517 1518 1518 1517 1518 1518 1518 1518 1518 1517 1517 1517 1517 1517 1517 1517 1518 1518 1519 1519 1520 1521 1522 1522
1517 1516 1516 1516 1515 1515 1515 1514 1514 1514 1514 1513 1513 1513 1513 1513 1513 1513 1514 1514 1515 1515 1515 1515 1516 1516 1516 1516 1516 1515 1515 1515 1515 1516 1516 1516 1516 1517 1517 1518 1519 1520 1521
1514 1514 1514 1513 1513 1512 1512 1511 1510 1510 1510 1510 1510 1510 1510 1510 1510 1511 1511 1511 1512 1512 1513 1513 1513 1514 1514 1514 1514 1514 1514 1513 1514 1514 1514 1514 1515 1515 1515 1516 1517 1518 1519
1511 1511 1510 1510 1510 1509 1509 1508 1508 1507 1507 1507 1507 1507 1507 1508 1507 1507 1508 1508 1509 1510 1510 1511 1511 1511 1511 1512 1512 1512 1512 1512 1512 1512 1512 1513 1513 1513 1514 1515 1515 1516 1517
1508 1508 1507 1507 1507 1506 1505 1505 1504 1504 1504 1504 1504 1504 1504 1504 1504 1504 1505 1505 1506 1507 1507 1508 1508 1508 1509 1509 1509 1509 1509 1510 1510 1510 1511 1511 1511 1512 1512 1513 1514 1514 1515
1505 1505 1504 1504 1503 1502 1502 1501 1501 1500 1500 1500 1500 1500 1500 1501 1501 1501 1502 1502 1503 1503 1504 1504 1505 1505 1505 1506 1506 1507 1507 1507 1508 1508 1508 1509 1509 1510 1510 1511 1511 1512 1512
1502 1501 1501 1500 1499 1499 1498 1497 1497 1496 1496 1496 1496 1496 1497 1497 1497 1497 1498 1499 1499 1500 1500 1501 1501 1501 1502 1503 1503 1504 1504 1504 1504 1506 1506 1506 1507 1507 1508 1508 1509 1509 1510
1498 1497 1497 1496 1495 1495 1494 1494 1493 1492 1492 1492 1491 1492 1492 1493 1493 1494 1494 1495 1495 1496 1497 1497 1497 1497 1498 1499 1500 1500 1500 1501 1501 1502 1503 1503 1504 1504 1505 1506 1506 1507 1507
1495 1494 1493 1492 1492 1491 1491 1490 1489 1488 1487 1487 1487 1488 1488 1488 1489 1489 1490 1490 1491 1492 1492 1493 1493 1494 1495 1496 1496 1497 1497 1498 1499 1500 1500 1500 1501 1501 1502 1503 1504 1504 1504
1491 1490 1489 1488 1487 1487 1487 1486 1485 1484 1483 1483 1483 1483 1483 1484 1484 1485 1485 1486 1486 1487 1488 1489 1489 1490 1491 1491 1492 1493 1494 1494 1494 1496 1497 1497 1498 1498 1499 1500 1501 1501 1501
1488 1487 1486 1485 1484 1483 1482 1482 1481 1480 1479 1478 1479 1479 1479 1479 1479 1480 1481 1481 1481 1482 1483 1484 1485 1486 1486 1487 1488 1488 1489 1490 1490 1492 1493 1494 1495 1496 1496 1497 1498 1498 1498